This demonstration page uses our WeatherBlox Daily Observations layout. Learn more.

Left ArrowRight Arrow

38.88101, -77.10428

Hourly Observations for July 19, 2016

Temp ( °F °C ) Dew Point ( °F °C ) Humidity (%) Winds ( mph kmh ) Pressure ( in mb ) Visibility ( mi km ) Precip ( " mm )
12:52 am 00:52 Mostly Cloudy 75 23.9 70 21.1 84 84 SW 8 13 30.09 1019 10 16.0934 0 0
1:52 am 01:52 Mostly Cloudy 74 23.3 70 21.1 88 88 SSW 6 9 30.09 1019 10 16.0934 0 0
2:52 am 02:52 Mostly Cloudy 73 22.8 70 21.1 90 90 SSW 6 9 30.09 1019 10 16.0934 0 0
3:52 am 03:52 Partly Cloudy 73 22.8 70 21.1 90 90 SSW 5 7 30.1 1019 10 16.0934 0 0
4:52 am 04:52 Mostly Cloudy 73 22.8 70 21.1 90 90 SSW 5 7 30.11 1020 10 16.0934 0 0
5:52 am 05:52 Mostly Cloudy 73 22.8 70 21.1 90 90 S 3 6 30.12 1020 10 16.0934 0 0
6:52 am 06:52 Mostly Cloudy 76 24.4 69 20.6 79 79 NNW 9 15 30.13 1020 10 16.0934 0 0
7:52 am 07:52 Mostly Cloudy 80 26.7 69 20.6 69 69 NNW 13 20 30.14 1021 10 16.0934 0 0
8:52 am 08:52 Partly Cloudy 82 27.8 70 21.1 67 67 N 9 15 30.15 1021 10 16.0934 0 0
9:52 am 09:52 Partly Cloudy 85 29.4 68 20 57 57 N 9 15 30.16 1021 10 16.0934 0 0
10:52 am 10:52 Partly Cloudy 85 29.4 68 20 57 57 E 6 9 30.17 1022 10 16.0934 0 0
11:52 am 11:52 Mostly Cloudy 86 30 66 18.9 51 51 ENE 3 6 30.17 1022 10 16.0934 0 0
12:52 pm 12:52 Mostly Cloudy 87 30.6 67 19.4 51 51 ENE 3 6 30.16 1021 10 16.0934 0 0
1:52 pm 13:52 Partly Cloudy 89 31.7 66 18.9 47 47 NE 7 11 30.13 1020 10 16.0934 0 0
2:52 pm 14:52 Mostly Cloudy 88 31.1 64 17.8 45 45 NNW 8 13 30.12 1020 10 16.0934 0 0
3:03 pm 15:03 Mostly Cloudy 88 31 63 17 43 43 WNW 7 11 30.12 1020 10 16.0934 0 0
3:52 pm 15:52 Mostly Cloudy 87 30.6 65 18.3 48 48 N 10 17 30.1 1019 10 16.0934 0 0
4:52 pm 16:52 Mostly Cloudy 89 31.7 64 17.8 43 43 N 7 11 30.09 1019 10 16.0934 0 0
5:52 pm 17:52 Mostly Cloudy 91 32.8 63 17.2 39 39 Calm 30.08 1019 10 16.0934 0 0
6:52 pm 18:52 Mostly Cloudy 87 30.6 67 19.4 51 51 SSW 6 9 30.07 1018 10 16.0934 0 0
7:52 pm 19:52 Mostly Cloudy 85 29.4 70 21.1 61 61 S 8 13 30.1 1019 10 16.0934 0 0
8:52 pm 20:52 Mostly Cloudy 83 28.3 71 21.7 67 67 S 9 15 30.11 1020 10 16.0934 0 0
9:52 pm 21:52 Partly Cloudy 81 27.2 73 22.8 77 77 SSW 10 17 30.12 1020 10 16.0934 0 0
10:34 pm 22:34 Mostly Cloudy 81 27 72 22 74 74 SW 10 17 30.15 1021 10 16.0934 0 0
10:39 pm 22:39 Mostly Cloudy with Thunderstorms 81 27.2 72 22.2 74 74 SW 10 17 30.12 1020 10 16.0934 0 0
10:52 pm 22:52 Mostly Cloudy with Thunderstorms 79 26.1 69 20.6 72 72 N 18 30 30.15 1021 10 16.0934 0 0
11:04 pm 23:04 Cloudy with Thunderstorms 75 24 66 19 74 74 NNE 20 31 30.15 1021 10 16.0934 0 0
11:06 pm 23:06 Cloudy with Light Thunderstorms 75 24 66 19 74 74 NNE 18 30 30.15 1021 7 11.26538 0 0
11:10 pm 23:10 Cloudy with Light Thunderstorms 75 24 66 19 74 74 N 15 24 30.15 1021 3 4.82802 0 0
11:13 pm 23:13 Cloudy with Heavy Thunderstorms 75 23.9 67 19.4 76 76 N 20 31 30.15 1021 2 3.21868 0 0.0254
11:19 pm 23:19 Cloudy with Heavy Thunderstorms 74 23.3 67 19.4 79 79 NE 22 35 30.15 1021 3 4.82802 0.03 0.762
11:24 pm 23:24 Cloudy with Light Thunderstorms 75 24 66 19 74 74 ENE 18 30 30.15 1021 7 11.26538 0 0
11:35 pm 23:35 Cloudy with Heavy Thunderstorms 72 22.2 65 18.3 79 79 N 23 37 30.18 1022 3 4.82802 0.08 2.032
11:42 pm 23:42 Cloudy with Heavy Thunderstorms 72 22 64 18 78 78 NE 21 33 30.18 1022 2 3.21868 0 0
11:50 pm 23:50 Cloudy with Light Thunderstorms 70 21 66 19 88 88 E 14 22 30.18 1022 4 6.43736 0 0
11:52 pm 23:52 Cloudy with Light Thunderstorms 70 21.1 66 18.9 87 87 ENE 12 19 30.17 1022 4 6.43736 0.35 8.89
11:58 pm 23:58 Mostly Cloudy with Light Thunderstorms 70 21 66 19 88 88 ENE 10 17 30.18 1022 10 16.0934 0 0

Powered by AerisWeather